cliquez pour ajouter le site Runraid à vos favoris  English version (google)  Retour à l'accueil Ecrire à l'auteur du site Runraid : Michel Jourdan



Les prochaines courses


Les derniers résultats

cliquez pour visualiser la page complète relatant la chronologie des éruptions du Piton de la Fournaise
éruptions Piton de la Fournaise


Ile de La Réunion

 Diagonale des Fous 

Ecrire au créateur du site : Michel Jourdan
Contact


2015-03-15 - Trail du Ventoux - 44 km

Pour consulter le palmarès d'un coureur, un clic sur son nom !

Vous avez des remarques, corrections, ... sur ces résultats , un clic sur --> pour me transmettre toute information concernant les classements


Trail du Ventoux - 44 km - 2015 : classement des 599 finishers
Place Nom Temps Cat. Club Sexe Clt/cat.
Place Nom Temps Cat. Club Sexe Clt/cat.
1 RANCON Julien 03:28:23 SEM Team M 0
2 MARTIN Nicolas 03:29:14 SEM TEAM M 0
3 LANNE Michel 03:34:50 SEM Team M 0
4 CELARIER Cedric 03:35:36 SEM [42] M 0
5 COURT Sylvain 03:35:50 SEM Team M 0
6 SIMONDS ANDY 03:36:36 SEM Team M 0
7 BARONIAN Thibaut 03:37:15 SEM Team Salomon M 0
8 ANTOLINOS Fabien 03:38:04 SEM Team M 0
9 RABAT Michel 03:39:20 SEM Non M 0
10 BEGAUD Stephane 03:40:46 SEM [13] M 0
11 CURIEN Yann 03:41:18 V1M TEAM M 1 V1M 0
12 SANTELLI Lambert 03:42:55 SEM [20] M 11 SEM 0
13 PERRIGNON Arnaud 03:44:58 V1M TEAM M 2 V1M 0
14 BRINGER Patrick 03:44:59 V1M TEAM M 3 V1M 0
15 NAVARRO Julien 03:45:21 SEM Team M 12 SEM 0
16 PETITJEAN Benjamin 03:47:36 SEM Team M 13 SEM 0
17 BEAUXIS Guillaume 03:48:58 SEM Team M 14 SEM 0
18 ZEROUALI Jaouad 03:49:04 SEM Team M 15 SEM 0
19 ROVERA Rene 03:53:05 V1M Team M 4 V1M 0
20 BOUVIER GAZ Nicolas 03:54:10 SEM Team M 16 SEM 0
21 SNICK Jeroen 03:54:21 SEM [06] M 17 SEM 0
22 MULOT Cyril 03:55:03 V1M [71] M 5 V1M 0
23 CELLE Stephane 03:55:06 SEM [42] M 18 SEM 0
24 MOUCHART Matthias 03:55:10 SEM Team M 19 SEM 0
25 JORRO Julien 03:55:13 SEM Team M 20 SEM 0
26 DUHAIL Nicolas 03:55:21 SEM [78] M 21 SEM 0
27 HAYETINE Alexandre 03:55:25 SEM [74] M 22 SEM 0
28 LLORENS Denis 03:56:12 SEM [83] M 23 SEM 0
29 DUHAIL Jonathan 03:57:11 SEM [78] M 24 SEM 0
30 PARIS Thomas 03:57:19 SEM [21] M 25 SEM 0
31 ANDRIEU David 03:58:01 V1M [81] M 6 V1M 0
32 BRUN AURELIEN 03:58:38 SEM Non F 26 SEM 0
33 CALATABRA Lionel 03:58:49 V1M [13] M 7 V1M 0
34 ROUANET Renaud 03:59:16 SEM Team M 27 SEM 0
35 GIRY Sylvain 04:00:51 SEM [84] M 28 SEM 0
36 LENORMAND Guillaume 04:01:19 SEM Team M 29 SEM 0
37 DEPERRAZ Stephane 04:03:05 SEM [74] M 30 SEM 0
38 TANNE Corentin 04:05:20 SEM Terre M 31 SEM 0
39 VITET Adrien 04:06:14 SEM [30] M 32 SEM 0
40 LAVY Jeremy 04:06:33 SEM [38] M 33 SEM 0
41 LAFAYE Celine 04:08:27 SEF Innov F 1ere F 0
42 ROUSSET Anne Lise 04:09:20 SEF Non F 2eme F 0
43 JANSSENS Gaetan 04:09:31 SEM [38] M 34 SEM 0
44 GAUDION Thomas 04:10:15 SEM [84] M 35 SEM 0
45 ANSELMO Christophe 04:10:51 SEM [69] M 36 SEM 0
46 RAVAUX Richard 04:10:56 V1M [75] M 8 V1M 0
47 MORILLO Cyril 04:11:11 V1M ENDURANCE M 9 V1M 0
48 MADRIGNAC Florian 04:12:43 SEM [34] M 37 SEM 0
49 BERNARD Damien 04:12:58 SEM [56] M 38 SEM 0
50 SAULEAU Sebastien 04:14:03 SEM [44] M 39 SEM 0
51 LEONET Cyrille 04:15:08 V1M [81] M 10 V1M 0
52 SIMONCINI Eric 04:15:32 V1M [13] M 11 V1M 0
53 MASSIMI Laurent 04:15:46 SEM [13] M 40 SEM 0
54 DUC Stephanie 04:16:43 V1F [73] F 3 eme F / 1 V1F 0
55 LASSONDE Fabien 04:16:48 SEM Non M 41 SEM 0
56 BOVERO Severine 04:17:23 SEF [42] F 4 eme F / 3 SEF 0
57 ALLONGUE Antoine 04:18:01 SEM [75] M 42 SEM 0
58 ALLONGUE Romain 04:18:02 SEM [13] M 43 SEM 0
59 RISI Florian 04:18:48 SEM [34] M 44 SEM 0
60 CHASTANIER Nicolas 04:20:17 SEM [30] M 45 SEM 0
61 MOUSSARD Edouard 04:20:19 SEM [56] M 46 SEM 0
62 GERMAIN Julien 04:20:19 V1M [13] M 12 V1M 0
63 ROBERT Nicolas 04:21:21 V1M [03] M 13 V1M 0
64 REYNAUD Vivien 04:21:50 SEM [63] M 47 SEM 0
65 DAUM Alexandre 04:22:20 SEM [73] M 48 SEM 0
66 BELLE Adrien 04:23:11 SEM [06] M 49 SEM 0
67 MILAN Sylvain 04:23:49 SEM [92] M 50 SEM 0
68 ROUSSET MELANIE 04:23:56 SEF Non F 5 eme F / 4 SEF 0
69 MAUCLAIR Nathalie 04:23:57 V1F Team F 6 eme F / 2 V1F 0
70 MARTIN Sandra 04:24:25 V1F TEAM F 7 eme F / 3 V1F 0
71 JAMET Nicolas 04:25:03 V1M [77] M 14 V1M 0
72 LABBE Philippe 04:25:06 SEM [26] M 51 SEM 0
73 RAMOND Vincent 04:25:23 SEM [10] M 52 SEM 0
74 MICHEL Yannick 04:27:40 SEM [04] M 53 SEM 0
75 LESAVRE Antoine 04:28:19 SEM [92] M 54 SEM 0
76 ANDRE Jordan 04:30:29 SEM [01] M 55 SEM 0
77 CACHARD Olivier 04:30:32 V1M [34] M 15 V1M 0
78 PERRET Jean Claude 04:30:35 V2M [74] M 1 V2M 0
79 GHESQUIER Pierre Marie 04:31:29 SEM [69] M 56 SEM 0
80 VASSEUR Nicolas 04:32:25 SEM [74] M 57 SEM 0
81 MERCIER Bruno 04:32:30 SEM [15] M 58 SEM 0
82 RICHARD Eric 04:32:55 V1M [05] M 16 V1M 0
83 STEPHAN Quentin 04:32:57 SEM - M 59 SEM 0
84 ADNET Abel 04:33:41 SEM [13] M 60 SEM 0
85 JEANNET Mickael 04:33:56 V1M [13] M 17 V1M 0
86 PINTO DE CARVALHO Jeremy 04:34:37 SEM [03] M 61 SEM 0
87 MARTY Nicolas 04:35:01 SEM [83] M 62 SEM 0
88 ROULLEAU Yann 04:35:01 SEM [13] M 63 SEM 0
89 SAUVE Jerome 04:35:37 V1M [57] M 18 V1M 0
90 CHARMASSON Florent 04:35:56 V1M [30] M 19 V1M 0
91 DONCHE Dimitri 04:36:43 SEM [74] M 64 SEM 0
92 PELLETIER Matthieu 04:37:00 SEM [42] M 65 SEM 0
93 MEYRONEINC Jean Jacques 04:37:11 SEM [63] M 66 SEM 0
94 BAUDELOCQUE Guillaume 04:37:24 SEM Non M 67 SEM 0
95 BLANC Philippe 04:37:28 V2M [84] M 2 V2M 0
96 FRADIN Vincent 04:37:39 SEM [63] M 68 SEM 0
97 BRESSON Guillaume 04:37:53 V1M [78] M 20 V1M 0
98 GIRARD Arnaud 04:38:16 SEM [13] M 69 SEM 0
99 LUKOSCHEK Leonhard 04:38:27 SEM [34] M 70 SEM 0
100 BALLET BAZ Jeremie 04:38:42 SEM [34] M 71 SEM 0
101 TOULZE Anthony 04:38:48 SEM [81] M 72 SEM 0
102 XXXX XX 04:39:16 SEM - M 73 SEM 0
103 GALLARD Jean Philippe 04:40:34 V1M [83] M 21 V1M 0
104 GURUNG Ram 04:40:34 V1M CSA/2eme M 22 V1M 0
105 ROCHETTE Frederic 04:40:36 V1M [42] M 23 V1M 0
106 DUBOS David 04:40:39 V1M [33] M 24 V1M 0
107 BOTREAU Ronan 04:40:43 SEM [92] M 74 SEM 0
108 LEHR Frederic 04:40:53 SEM [13] M 75 SEM 0
109 ROCHE Gaspard 04:42:52 SEM [13] M 76 SEM 0
110 MATHOT Jean Francois 04:44:12 V2M [69] M 3 V2M 0
111 PISTONO Nicolas 04:44:34 SEM [05] M 77 SEM 0
112 EVRAD Claude 04:45:12 V1M Non M 25 V1M 0
113 SUZANNE Nicolas 04:45:16 SEM [14] M 78 SEM 0
114 ROUX Claude 04:45:21 V2M Non M 4 V2M 0
115 DESCHAMPS Julien 04:45:27 SEM [13] M 79 SEM 0
116 HUBERT Matthieu 04:46:30 SEM [59] M 80 SEM 0
117 LE GOFF Michel 04:46:35 V1M [75] M 26 V1M 0
118 EGLIN Pascal 04:46:46 V2M [30] M 5 V2M 0
119 GEORGEL Daniel 04:47:03 V2M [39] M 6 V2M 0
120 DIET Aude 04:47:51 SEF [30] F 8 eme F / 5 SEF 0
121 PAILLEUX Bertrand 04:47:52 SEM [43] M 81 SEM 0
122 ALMANZA Christophe 04:47:52 SEM [83] M 82 SEM 0
123 JOUSSELME Eric 04:48:08 V2M [07] M 7 V2M 0
124 YVART Sebastien 04:48:14 SEM [38] M 83 SEM 0
125 COURCELLE Karen 04:48:36 V1F [13] F 9 eme F / 4 V1F 0
126 MISKO Wilfried 04:48:36 SEM [30] M 84 SEM 0
127 MOURIER Yoann 04:49:50 ESM [84] M 1 ESM 0
128 DAMESIN Julien 04:50:12 SEM [34] M 85 SEM 0
129 MORAS Raphael 04:50:15 SEM [78] M 86 SEM 0
130 REMOLA Eric 04:51:12 V1M [30] M 27 V1M 0
131 BREMAUD Freddy 04:51:42 V1M [49] M 28 V1M 0
132 BREYTON Bruno 04:51:45 V1M [83] M 29 V1M 0
133 DELPUECH Thibault 04:52:46 SEM [63] M 87 SEM 0
134 MILA Gregory 04:53:08 SEM [01] M 88 SEM 0
135 LECHANTEUR Denis 04:53:10 V1M [78] M 30 V1M 0
136 PROVOST Laurent 04:53:11 SEM [78] M 89 SEM 0
137 LAURE Benoit 04:53:30 V1M [44] M 31 V1M 0
138 JOSIEN Lucie 04:54:09 SEF [34] F 10 eme F / 6 SEF 0
139 TOUNKARA Michael 04:54:09 V1M [34] M 32 V1M 0
140 BOUQUET Paul 04:54:09 SEM [49] M 90 SEM 0
141 RAIBAUT Vincent 04:54:32 V1M [84] M 33 V1M 0
142 MARTY Anthony 04:54:37 SEM [81] M 91 SEM 0
143 BIARD Antoine 04:54:59 ESM [09] M 2 ESM 0
144 MARITON Stephane 04:55:44 SEM [38] M 92 SEM 0
145 URTADO Samuel 04:55:57 SEM Team M 93 SEM 0
146 CHEVALIER Lionel 04:58:00 SEM [06] M 94 SEM 0
147 SCHWARTZENTRUBER Arnaud 04:58:26 V1M [69] M 34 V1M 0
148 PICAULT Alexandre 04:58:33 SEM [84] M 95 SEM 0
149 BOUVARD Philippe 04:58:36 V1M [01] M 35 V1M 0
150 PENNEQUIN Nicolas 04:58:46 SEM [69] M 96 SEM 0
151 BRUNO Fred 04:58:52 V1M [42] M 36 V1M 0
152 BAYON Pascal 04:59:17 V1M [03] M 37 V1M 0
153 FRANCOIS Loic 04:59:31 SEM [74] M 97 SEM 0
154 PALLISER Franck 05:00:29 SEM [13] M 98 SEM 0
155 COCHET Sebastien 05:00:40 V1M [75] M 38 V1M 0
156 CLABE Jerome 05:01:06 SEM [83] M 99 SEM 0
157 DUCLAIROIR Philippe 05:01:16 V2M [84] M 8 V2M 0
158 ASSEL Marielle 05:01:26 SEF [05] F 11 eme F / 7 SEF 0
159 RIGAUD Romain 05:01:26 V1M [34] M 39 V1M 0
160 ATZENI Laurie 05:01:27 SEF Endurance F 12 eme F / 8 SEF 0
161 SIMONIN Jean Luc 05:01:28 V2M [26] M 9 V2M 0
162 TOUTAIN Laurent 05:01:37 V1M [84] M 40 V1M 0
163 HAUX Jean Philippe 05:01:43 V1M [57] M 41 V1M 0
164 DUFFAU David 05:02:18 SEM [40] M 100 SEM 0
165 FLEXAS Gregory 05:02:22 SEM [84] M 101 SEM 0
166 MARQUES Remi 05:03:03 V1M [13] M 42 V1M 0
167 PELBOIS Jean Marc 05:03:05 V1M [13] M 43 V1M 0
168 BUENO Francois 05:03:16 V1M [13] M 44 V1M 0
169 COUDEVILLE Julien 05:03:24 SEM [34] M 102 SEM 0
170 BOURENE Fabien 05:04:32 V1M [84] M 45 V1M 0
171 SCHEINER Perrine 05:04:34 SEF [13] F 13 eme F / 9 SEF 0
172 CACHARD Sabrina 05:05:28 V1F [34] F 14 eme F / 5 V1F 0
173 MOLIERE Didier 05:05:58 V1M [30] M 46 V1M 0
174 DUFOUR Maxime 05:06:03 SEM [06] M 103 SEM 0
175 PAYAN GERALD 05:06:03 SEM [34] M 104 SEM 0
176 FALGAYRAC Lilian 05:06:33 V1M [13] M 47 V1M 0
177 RAYMOND Kevin 05:07:00 SEM [04] M 105 SEM 0
178 HERRERO Eric 05:07:15 SEM [83] M 106 SEM 0
179 LEVASSEUR Benoit 05:07:48 SEM [13] M 107 SEM 0
180 CUCURULO Paul 05:07:48 SEM [13] M 108 SEM 0
181 RENARD Francois 05:07:51 SEM [06] M 109 SEM 0
182 LENOGUE Emmanuel 05:07:55 SEM [66] M 110 SEM 0
183 BOURDON Philippe 05:07:55 V2M [84] M 10 V2M 0
184 GROSJEAN Christine 05:08:52 V2F Non F 15 eme F / 1 V2F 0
185 GERMAIN Sebastien 05:09:22 SEM [78] M 111 SEM 0
186 LATTAUD Bernard 05:09:25 V2M [71] M 11 V2M 0
187 SEUVE Julien 05:09:29 SEM [30] M 112 SEM 0
188 CURTIL Sylvain 05:09:31 SEM [84] M 113 SEM 0
189 RUL Julien 05:09:40 V1M [13] M 48 V1M 0
190 SUSINI Gregory 05:10:24 SEM [83] M 114 SEM 0
191 LAURENTI Jonathan 05:10:35 SEM [01] M 115 SEM 0
192 BONNE Sebastien 05:11:04 SEM [73] M 116 SEM 0
193 GONTIER Laurent 05:11:37 SEM [31] M 117 SEM 0
194 HERRAGNE Jerome 05:11:47 SEM [13] M 118 SEM 0
195 PARDON Mathieu 05:11:50 SEM [75] M 119 SEM 0
196 MAUCHAND Jerome 05:12:26 V1M [77] M 49 V1M 0
197 GUILLOU Simon 05:12:29 SEM [78] M 120 SEM 0
198 LARDEUX Alexandre 05:12:46 SEM [72] M 121 SEM 0
199 DELAGE Marion 05:12:47 SEF Team F 16 eme F / 10 SEF 0
200 PORTANGUEN Cecil 05:12:48 SEM [13] M 122 SEM 0
201 RENOU Nicolas 05:13:40 SEM [01] M 123 SEM 0
202 AUBERGER Laurent 05:13:43 V1M [77] M 50 V1M 0
203 NOWICKI Franck 05:14:36 V1M [91] M 51 V1M 0
204 CAPDEVILA Pascal 05:14:51 SEM Team M 124 SEM 0
205 WENDLING Marc 05:15:25 V1M [57] M 52 V1M 0
206 TROMEL Remi 05:15:26 SEM [26] M 125 SEM 0
207 BOUCHET Thierry 05:15:37 V2M [42] M 12 V2M 0
208 PERAY Sebastien 05:15:48 V1M [69] M 53 V1M 0
209 COLIN Joseph 05:16:02 V1M [21] M 54 V1M 0
210 JAGER Pascal 05:16:05 V2M [13] M 13 V2M 0
211 ROSE Thierry 05:16:19 SEM [38] M 126 SEM 0
212 BOUDAS Pascal 05:16:33 SEM [84] M 127 SEM 0
213 LIDOYNE Bertrand 05:16:34 SEM [42] M 128 SEM 0
214 GAUTHIER Pierre 05:16:41 SEM [13] M 129 SEM 0
215 CHESSERON Jean Marie 05:16:48 V2M [31] M 14 V2M 0
216 GIRARD Ludovic 05:17:05 V1M [84] M 55 V1M 0
217 DASI Bruno 05:17:17 V1M [30] M 56 V1M 0
218 MEUGNIER Christophe 05:17:28 V1M [71] M 57 V1M 0
219 JOSSOT Emmanuel 05:17:30 SEM [44] M 130 SEM 0
220 COZZANI Sebastien 05:17:36 SEM [83] M 131 SEM 0
221 JURADO Florian 05:17:39 SEM [34] M 132 SEM 0
222 CHILLET Joel 05:18:12 V2M [42] M 15 V2M 0
223 HANNION Thierry 05:18:13 V2M [69] M 16 V2M 0
224 DEBRARD Jacques 05:18:14 V1M [49] M 58 V1M 0
225 BOUQUET Pascal 05:18:15 V2M [49] M 17 V2M 0
226 KOGLER Lauriane 05:18:56 SEF [38] F 17 eme F / 11 SEF 0
227 JAMIN Ludovic 05:19:28 V1M [44] M 59 V1M 0
228 BARDOUL Mickael 05:19:29 V1M [44] M 60 V1M 0
229 REBUFA Jacques 05:19:55 SEM [13] M 133 SEM 0
230 CORNELOUP Adrien 05:20:04 SEM [05] M 134 SEM 0
231 REVILLET Jacky 05:20:16 V1M [39] M 61 V1M 0
232 ZANCHETTI Thierry 05:20:44 V1M [84] M 62 V1M 0
233 FERRAUD Patrick 05:22:29 V2M [83] M 18 V2M 0
234 BRANCORSINI Olivier 05:22:31 SEM [84] M 135 SEM 0
235 BERGES Frederic 05:22:38 V1M [31] M 63 V1M 0
236 CAYROL Jerome 05:22:38 V1M [30] M 64 V1M 0
237 GILLARD Ronan 05:22:41 V1M CSA/2eme M 65 V1M 0
238 HENNOCQ Guillaume 05:22:41 SEM CSA/2eme M 136 SEM 0
239 LEVEQUE Lucas 05:22:43 ESM [84] M 3 ESM 0
240 RIGAUD Sylvain 05:22:44 SEM [42] M 137 SEM 0
241 DALESME Arnaud 05:22:47 SEM [19] M 138 SEM 0
242 DELOS Damien 05:23:15 SEM [30] M 139 SEM 0
243 FOUDRINIER Emmanuel 05:23:15 SEM [38] M 140 SEM 0
244 PRICHYSTAL Jean Baptiste 05:23:17 SEM [95] M 141 SEM 0
245 CONTET VIVIER David 05:23:20 V1M [84] M 66 V1M 0
246 BRUN Maxime 05:23:21 SEM [31] M 142 SEM 0
247 LAVIDALLE Laurent 05:23:21 V2M [92] M 19 V2M 0
248 PITTI Jean Francois 05:23:44 V1M [13] M 67 V1M 0
249 BOUCHET Kevin 05:23:55 SEM [42] M 143 SEM 0
250 DALLA BARBA Patrick 05:23:58 V3M [13] M 1 V3M 0
251 BORDUJENKO Stephane 05:24:02 V1M [84] M 68 V1M 0
252 SAUVE Gael 05:24:02 SEM [54] M 144 SEM 0
253 MAUDUIT Paul 05:24:04 SEM [92] M 145 SEM 0
254 COCHETEL Raphael 05:24:39 V1M [84] M 69 V1M 0
255 PLASSE Nicolas 05:24:49 SEM [30] M 146 SEM 0
256 LECRENIER Benjamin 05:24:50 SEM [05] M 147 SEM 0
257 FOREST Stephane 05:25:34 SEM [74] M 148 SEM 0
258 BLANCHON Vincent 05:25:36 V1M [42] M 70 V1M 0
259 DAVID Guillaume 05:25:37 SEM [21] M 149 SEM 0
260 COUDERC Jean Baptiste 05:26:10 SEM [87] M 150 SEM 0
261 MADRIGNAC Jerome 05:26:15 SEM [15] M 151 SEM 0
262 BLONDEL Nicolas 05:26:21 V1M [60] M 71 V1M 0
263 TABAR Christophe 05:26:25 SEM [06] M 152 SEM 0
264 COUDERC Nicolas 05:26:51 SEM [83] M 153 SEM 0
265 JACOB Jean Francois 05:26:54 V1M [07] M 72 V1M 0
266 MONTRIEUL Fabrice 05:27:26 V1M [34] M 73 V1M 0
267 OLLAGNON Christophe 05:28:17 V1M [42] M 74 V1M 0
268 CERUTTI Guillaume 05:28:39 SEM [69] M 154 SEM 0
269 GILLET Gregory 05:28:46 SEM [08] M 155 SEM 0
270 DUBOUILH Cedric 05:29:08 V1M [74] M 75 V1M 0
271 LAFONT Albin 05:30:19 SEM [78] M 156 SEM 0
272 PAVOINE Frederic 05:30:23 V1M [35] M 76 V1M 0
273 LE PIERES Frank 05:30:44 V1M [13] M 77 V1M 0
274 VIDAL Philippe 05:31:08 V2M [84] M 20 V2M 0
275 BLANC Cyril 05:31:28 V1M [13] M 78 V1M 0
276 ESPINGUET Sylvain 05:31:34 V2M [30] M 21 V2M 0
277 JANETTA Marc 05:31:36 V1M Team M 79 V1M 0
278 HEIMER Julie 05:31:39 ESF [74] F 18 eme F / 1 ESF 0
279 LETORT Anthony 05:31:48 SEM [37] M 157 SEM 0
280 RABAHI Farrid 05:31:58 V1M [25] M 80 V1M 0
281 MINGUEZ Eric 05:32:26 V1M [77] M 81 V1M 0
282 PONSIN Eric 05:32:57 V1M [01] M 82 V1M 0
283 ARNOUX Frederic 05:33:05 SEM [38] M 158 SEM 0
284 PONTIER Thierry 05:33:22 V1M [13] M 83 V1M 0
285 CURTAT Sebastien 05:33:33 SEM [69] M 159 SEM 0
286 RAOUX Arnaud 05:33:42 V1M [30] M 84 V1M 0
287 MORILLAS Joseph 05:33:45 V1M MARSEILLE M 85 V1M 0
288 SCHEVENEMENT Gerard 05:34:29 V2M [84] M 22 V2M 0
289 SOLTYSIAK Slawek 05:34:46 V1M [13] M 86 V1M 0
290 BOCAHU Sebastien 05:35:20 SEM [69] M 160 SEM 0
291 PLAY Aurelien 05:35:23 SEM [69] F 161 SEM 0
292 VIERRON Raphael 05:36:26 V1M [34] M 87 V1M 0
293 MORINEAU Vincent 05:36:30 SEM [14] M 162 SEM 0
294 DENIS Sylvain 05:36:52 SEM [56] M 163 SEM 0
295 DAVARD Stephane 05:37:18 SEM [81] M 164 SEM 0
296 BOUDOUL Thierry 05:37:20 V1M [26] M 88 V1M 0
297 CHARVIN Xavier 05:37:20 SEM [34] M 165 SEM 0
298 TRAMIER Pierre 05:37:21 SEM [84] M 166 SEM 0
299 CAUCHY Damien 05:37:23 SEM [44] M 167 SEM 0
300 VALENTINI Laurent 05:37:25 V1M CO.CAMPILE M 89 V1M 0
301 BAI Jerome 05:37:51 V1M [69] M 90 V1M 0
302 DIEHL Romain 05:38:10 SEM [56] M 168 SEM 0
303 MEBON Jeremy 05:38:10 SEM [56] M 169 SEM 0
304 BOUILLER Franck 05:38:28 V1M [03] M 91 V1M 0
305 DESPLAT Vincent 05:38:47 V1M [13] M 92 V1M 0
306 PAROUX Alix 05:38:49 SEF [81] F 19eme F / 12 SEF 0
307 FAVRE Alain 05:38:49 V2M [74] M 23 V2M 0
308 DUPOUY Guillaume 05:38:58 SEM CO.CAMPILE M 170 SEM 0
309 BURNEL Christophe 05:39:00 V1M [13] M 93 V1M 0
310 DOUNIES Jerome 05:39:06 SEM [19] M 171 SEM 0
311 FOUTREL Gilles 05:39:36 V1M [78] M 94 V1M 0
312 DUVAL David 05:39:37 SEM [53] M 172 SEM 0
313 GOBERT David 05:39:37 V1M [92] M 95 V1M 0
314 ROSSIGNOL Steve 05:39:38 V1M [13] M 96 V1M 0
315 OUIZMAN Gael 05:40:13 SEM [26] M 173 SEM 0
316 RECCO Thierry 05:40:24 V1M [13] M 97 V1M 0
317 GOUAN Jerome 05:41:19 V1M [91] M 98 V1M 0
318 ALBERT Nicolas 05:41:41 SEM [11] M 174 SEM 0
319 PLUSQUELLEC Yoann 05:41:42 SEM [11] M 175 SEM 0
320 DUBOIS JEROME 05:41:46 V1M Non M 99 V1M 0
321 BAUDON Claude 05:42:08 V3M [78] M 2 V3M 0
322 LAVERSANNE Sophie 05:42:22 SEF [13] F 20 eme F / 13 SEF 0
323 BOUQUET Arnaud 05:42:28 SEM [43] M 176 SEM 0
324 BOUQUET Loic 05:42:28 SEM [43] M 177 SEM 0
325 LACHMAN Michel 05:42:30 V1M CSA/2eme M 100 V1M 0
326 MOYNE Jean Luc 05:42:43 V2M [25] M 24 V2M 0
327 MERCIER Patrick 05:42:59 V1M [07] M 101 V1M 0
328 GUICHARD Michel 05:43:24 V2M [42] M 25 V2M 0
329 ESPARON Mathieu 05:43:24 SEM [69] M 178 SEM 0
330 GASIOROWSKI Guillaume 05:43:36 SEM [34] M 179 SEM 0
331 ONDE Sylvain 05:43:48 SEM [84] M 180 SEM 0
332 LICETTE Benoit 05:43:59 SEM [06] M 181 SEM 0
333 RAMEL Christophe 05:44:35 V1M [69] M 102 V1M 0
334 BECAUT Eric 05:44:35 V1M [69] M 103 V1M 0
335 LESUEUR Tanguy 05:44:36 SEM Non M 182 SEM 0
336 GRASSIEN Jerome 05:44:37 V1M [44] M 104 V1M 0
337 GALLO Stephane 05:44:55 SEM [84] M 183 SEM 0
338 COLONNA Sebastien 05:45:03 SEM [83] M 184 SEM 0
339 BRIFFAULT Guillaume 05:45:07 V1M [77] M 105 V1M 0
340 MASCRET Morgane 05:45:25 SEF [13] F 21 eme F / 14 SEF 0
341 FLORENT Marc 05:46:13 SEM [13] M 185 SEM 0
342 MICHEL Sebastien 05:46:35 V1M [42] M 106 V1M 0
343 PERISSE Matthieu 05:46:41 SEM [84] M 186 SEM 0
344 FOUQUET Jean Pierre 05:46:47 V2M [74] M 26 V2M 0
345 LEGRAND David 05:46:47 SEM [74] M 187 SEM 0
346 CHANEL Stephane 05:46:56 V1M [83] M 107 V1M 0
347 LAYNE Nicolas 05:47:10 SEM [76] M 188 SEM 0
348 RECORDIER Sebastien 05:47:13 SEM [84] M 189 SEM 0
349 GRAND Jean Christophe 05:47:32 V1M [83] M 108 V1M 0
350 MONNIER Pierre Arnaud 05:48:18 V1M [57] M 109 V1M 0
351 REFFORD Julien 05:48:18 SEM [94] M 190 SEM 0
352 LATOUR Gregory 05:49:10 SEM [06] M 191 SEM 0
353 QUEMERE Yves 05:49:32 V1M [04] M 110 V1M 0
354 LAGADEUC Karl 05:49:34 SEM [13] M 192 SEM 0
355 DJADANE Emilie 05:49:41 SEF [13] F 22 eme F / 15 SEF 0
356 VINCLAIR Marc 05:50:10 SEM [38] M 193 SEM 0
357 THERY Franck 05:50:20 V1M [84] M 111 V1M 0
358 SOULIE Nicolas 05:50:23 SEM [94] M 194 SEM 0
359 SADAOUI Hocine 05:51:10 V2M [42] M 27 V2M 0
360 RIVALS Benoit 05:51:16 SEM [92] M 195 SEM 0
361 LEGER Romain 05:51:59 SEM [30] M 196 SEM 0
362 HOULBERT David 05:51:59 SEM [95] M 197 SEM 0
363 CARPENTIER Franck 05:52:15 V1M [27] M 112 V1M 0
364 AUBERGER Magali 05:52:25 SEF [77] F 23 eme F / 16 SEF 0
365 TEBIB Cyrille 05:52:50 V1M [35] M 113 V1M 0
366 COUSTON Vincent 05:53:00 V2M [13] M 28 V2M 0
367 DESIDERI Jonathan 05:53:07 SEM [13] M 198 SEM 0
368 NADLER Jeremy 05:53:14 SEM [57] M 199 SEM 0
369 MORAND Frederic 05:53:19 SEM [74] M 200 SEM 0
370 LANRIVAIN Rodolphe 05:53:52 SEM [06] M 201 SEM 0
371 BARONI Patrick 05:54:05 V2M [13] M 29 V2M 0
372 OSELLA Christophe 05:54:19 V1M [13] M 114 V1M 0
373 SAISSE Pierre 05:54:35 V1M [13] M 115 V1M 0
374 LEBRUN Lucky 05:54:35 V1M [51] M 116 V1M 0
375 LAURENS Lionel 05:55:00 SEM [30] M 202 SEM 0
376 VAUCLARE Jean Baptiste 05:55:02 V1M [77] M 117 V1M 0
377 MOREAU Brice 05:55:06 SEM [38] M 203 SEM 0
378 GARELLI Cedric 05:55:09 SEM [93] M 204 SEM 0
379 TEKNETZIS Apostolos 05:55:34 SEM [92] M 205 SEM 0
380 WENNACK Jean 05:56:04 V1M [13] M 118 V1M 0
381 LEFEBVRE Cedric 05:56:06 V1M [91] M 119 V1M 0
382 MOURGUE Bastien 05:56:10 SEM [38] M 206 SEM 0
383 FRECON Quentin 05:56:57 SEM [63] M 207 SEM 0
384 DESCROIX Samuel 05:57:05 SEM [78] M 208 SEM 0
385 GAILLOT Romain 05:58:02 SEM [92] M 209 SEM 0
386 IBTIOUENE Karim 05:58:17 V1M [78] M 120 V1M 0
387 BUCCI Nicolas 05:58:20 V1M [74] M 121 V1M 0
388 GIL Yohan 05:58:22 SEM [21] M 210 SEM 0
389 ETCHECOPAR Bertrand 05:58:23 V2M [31] M 30 V2M 0
390 RONDEAU Alexandre 05:58:31 SEM [13] M 211 SEM 0
391 IACONO Gilles 05:59:14 V2M [13] M 31 V2M 0
392 MASCARELL Arnaud 05:59:23 V1M [37] M 122 V1M 0
393 MOREL Yves 05:59:24 V1M [92] M 123 V1M 0
394 BEGEL Sebastien 05:59:27 SEM [92] M 212 SEM 0
395 JODON Robin 05:59:28 SEM [69] M 213 SEM 0
396 BERNE Nicolas 05:59:34 V1M [30] M 124 V1M 0
397 LENOIR Thibaut 05:59:42 SEM [92] M 214 SEM 0
398 ROUZAUD Thierry 06:00:02 V2M [13] M 32 V2M 0
399 LEDUC Aymeric 06:00:06 V1M [07] M 125 V1M 0
400 NAESSENS Guillaume 06:00:07 SEM [59] M 215 SEM 0
401 TREMEY Benjamin 06:00:09 V1M [92] M 126 V1M 0
402 DRIN Guillaume 06:00:13 V1M [06] M 127 V1M 0
403 FLEUREAU Valentin 06:00:27 SEM [13] M 216 SEM 0
404 SOUCI Karim 06:00:41 SEM [30] M 217 SEM 0
405 VESSAZ Jerome 06:01:00 SEM [31] M 218 SEM 0
406 BENET Thierry 06:01:02 V2M [76] M 33 V2M 0
407 BIGGI Patrick 06:01:35 V2M [13] M 34 V2M 0
408 CARLOTTI Eric 06:01:37 V1M CO.CAMPILE M 128 V1M 0
409 ROUVIER Stephan 06:01:46 V1M [07] M 129 V1M 0
410 ANDREO Isabelle 06:01:47 V1F [30] F 24 eme F / 6 V1F 0
411 ALEXANDROWICZ Laurent 06:02:08 V2M [69] M 35 V2M 0
412 DEMON Gregory 06:02:41 V1M [26] M 130 V1M 0
413 BRISSON Olivier 06:03:37 V1M [63] M 131 V1M 0
414 BAYLE Pascale 06:03:38 V1F [63] F 25 eme F / 7 V1F 0
415 MERCADAL Serge 06:04:18 V1M [31] M 132 V1M 0
416 MIGUEL Christophe 06:04:21 V1M [84] M 133 V1M 0
417 CABROL Francois 06:04:48 SEM [31] M 219 SEM 0
418 DURAND Jerome 06:05:58 V1M [82] M 134 V1M 0
419 FEUTRE Dominique 06:06:28 V2M [91] M 36 V2M 0
420 VOUTHIER Vincent 06:07:13 SEM [73] M 220 SEM 0
421 TARAZONA Laurent 06:07:24 V1M [38] M 135 V1M 0
422 GIRARD Anne Catherine 06:08:34 V1F [84] F 26 eme F / 8 V1F 0
423 QUILLIOT Olivier 06:08:35 V1M [13] M 136 V1M 0
424 LEGENT Mathieu 06:08:37 V1M [84] M 137 V1M 0
425 RATHELOT Benjamin 06:09:01 SEM [06] M 221 SEM 0
426 RABEUF Severine 06:09:08 V1F [02] F 27 eme F / 9 V1F 0
427 DEUTSCH Reynald 06:09:09 V1M [30] M 138 V1M 0
428 LOZA Cyril 06:09:11 V1M [30] M 139 V1M 0
429 BARRACHIN Christophe 06:09:21 V2M [13] M 37 V2M 0
430 BOYER Marc 06:09:22 V1M [77] M 140 V1M 0
431 ANDREO Eric 06:10:05 V1M [30] M 141 V1M 0
432 VILLERMET Fabrice 06:11:06 V1M [38] M 142 V1M 0
433 DEGANDT Joanny 06:11:08 SEM [57] M 222 SEM 0
434 CLABAUT Jean Guillaume 06:11:10 V1M [06] M 143 V1M 0
435 BES Stephanie 06:12:20 SEF [13] F 28 eme F / 17 SEF 0
436 BARBERO Brune Lise 06:12:22 SEF [30] F 29 eme F / 18 SEF 0
437 MOLINARI Stephane 06:18:23 V1M [84] M 144 V1M 0
438 MARTINAT Patrick 06:20:56 V2M [03] M 38 V2M 0
439 MERLIN Jean 06:20:59 SEM [06] M 223 SEM 0
440 MARTEL Fabien 06:20:59 SEM [06] M 224 SEM 0
441 PARRINELLO Gerard 06:21:10 V1M [13] M 145 V1M 0
442 CADERBY Dominique 06:21:13 SEM [94] M 225 SEM 0
443 DEGOUTES Jeremie 06:21:21 SEM [91] M 226 SEM 0
444 DEGOUTES Anthony 06:21:21 SEM [69] M 227 SEM 0
445 QUATTROCCHI Jean Philippe 06:21:35 V1M [13] M 146 V1M 0
446 DALMASSO Bruno 06:21:43 V1M [13] M 147 V1M 0
447 PACE Vincent 06:21:53 SEM [31] M 228 SEM 0
448 BUSSON Philippe 06:22:07 V2M [44] M 39 V2M 0
449 CASSE Mathieu 06:23:31 V1M [01] M 148 V1M 0
450 ORCEL Vincent 06:23:51 V1M [07] M 149 V1M 0
451 BEAUSSART David 06:23:54 SEM CSA/2eme M 229 SEM 0
452 BRITAY Nicolas 06:24:31 SEM [77] M 230 SEM 0
453 HEIMER Christine 06:24:32 V2F [74] F 30 eme F / 2 V2F 0
454 BESSET Jean Philippe 06:24:37 V1M [84] M 150 V1M 0
455 BEAUMONT Fabien 06:25:56 V1M [69] M 151 V1M 0
456 MELY Joel 06:26:10 V2M [84] M 40 V2M 0
457 BADAJOZ Augustin 06:26:33 V2M [83] M 41 V2M 0
458 GUILLAUMIER Sebastien 06:26:54 V1M [13] M 152 V1M 0
459 DRAMARD Jean Francois 06:27:01 V1M [91] M 153 V1M 0
460 SEGARD Christophe 06:28:26 V1M [68] M 154 V1M 0
461 DOIZON David 06:28:38 V1M [13] M 155 V1M 0
462 ECOLLAN Carole 06:28:55 V2F [92] F 31 eme F / 3 V2F 0
463 GAUCHON Philippe 06:30:30 V2M [69] M 42 V2M 0
464 JOUX Fabrice 06:30:33 V1M [01] M 156 V1M 0
465 DEFIX Dominique 06:30:35 V2M [69] M 43 V2M 0
466 MAZZELLA Matthieu 06:30:43 V1M [63] M 157 V1M 0
467 BAI Nicolas 06:30:45 SEM [83] M 231 SEM 0
468 VABRE Christian 06:30:47 V2M [31] M 44 V2M 0
469 TRAPAND Philippe 06:30:49 V1M [30] M 158 V1M 0
470 LECOMTE Emmanuel 06:31:33 V1M [76] M 159 V1M 0
471 GRZES Ludovic 06:31:33 V2M [60] M 45 V2M 0
472 MOULY Pierre 06:31:47 V3M [63] M 3 V3M 0
473 DORE Emmanuelle 06:31:50 V1F [84] F 32 eme F / 10 V1F 0
474 MARTINEZ PEREZ Llorens 06:32:11 SEM [13] M 232 SEM 0
475 LECOR Sebastien 06:32:16 V1M [28] M 160 V1M 0
476 KOCH Herve 06:32:43 V1M [60] M 161 V1M 0
477 BOTELLA Aurelien 06:33:32 ESM [84] F 4 ESM 0
478 COQ Flavien 06:33:36 SEM [78] M 233 SEM 0
479 FERRER Manon 06:33:37 SEF [84] F 33 eme F / 19 SEF 0
480 GAZELLE Thierry 06:33:42 V1M [13] M 162 V1M 0
481 GIRARDOT Frederic 06:33:53 SEM [21] M 234 SEM 0
482 DROUIN Samuel 06:34:26 V1M [75] M 163 V1M 0
483 CLAVAUD Carl 06:35:24 SEM [13] M 235 SEM 0
484 DURIS Jean Luc 06:35:35 V2M [42] M 46 V2M 0
485 TOLIAN Mathieu 06:36:50 SEM [75] M 236 SEM 0
486 GAUTIER Laurent 06:36:53 V2M [77] M 47 V2M 0
487 ANDRE Stephane 06:36:59 SEM [92] M 237 SEM 0
488 LABOULLE Sebastien 06:37:41 V1M [10] M 164 V1M 0
489 SOULIE David 06:38:13 SEM [94] M 238 SEM 0
490 LE GUELVOUIT Arnaud 06:38:14 SEM [94] M 239 SEM 0
491 REIG Patrick 06:38:19 V2M [78] M 48 V2M 0
492 JOUBERT Henry 06:38:21 V3M [69] M 4 V3M 0
493 GRESET Romain 06:38:22 SEM [70] M 240 SEM 0
494 SELLES Frederic 06:38:39 V1M [13] M 165 V1M 0
495 JACOTTIN Franck 06:39:04 V2M [01] M 49 V2M 0
496 FILIAS Stephane 06:39:35 SEM [26] M 241 SEM 0
497 REYNAUD Philippe 06:39:56 V1M [92] M 166 V1M 0
498 LAUTARD Sylvie 06:40:28 V1F [13] F 34 eme F / 11 V1F 0
499 SURQUIN Jean Luc 06:40:39 V1M [B ] M 167 V1M 0
500 BRISSET Etienne 06:41:32 SEM [31] M 242 SEM 0
501 BOUCHE David 06:41:32 SEM [60] M 243 SEM 0
502 CALLENS Laurent 06:41:43 V1M [84] M 168 V1M 0
503 CANESTRARI Gilles 06:42:25 V2M [84] M 50 V2M 0
504 LIBERT Christophe 06:42:39 SEM [92] M 244 SEM 0
505 BAUMS Franck 06:43:36 V1M [92] M 169 V1M 0
506 TURCANO David 06:43:39 V1M [78] M 170 V1M 0
507 DUCREUX Loic 06:43:54 SEM [69] M 245 SEM 0
508 PEREZ Damien 06:46:08 V1M [84] M 171 V1M 0
509 ROSENBAUM David 06:46:18 V1M [92] M 172 V1M 0
510 BLANDIN Frederic 06:46:19 V2M [92] M 51 V2M 0
511 PIZARRO Louis 06:46:19 V1M [92] M 173 V1M 0
512 NOIRAT Lionel 06:47:13 V1M [84] M 174 V1M 0
513 BARAT Nelly 06:47:47 SEF [06] F 35 eme F / 20 SEF 0
514 SARRAZIN Sebastien 06:47:48 SEM [62] M 246 SEM 0
515 HERMANT Gregory 06:47:58 V1M [01] M 175 V1M 0
516 GOURGUECHON Sebastien 06:48:19 SEM [75] M 247 SEM 0
517 OBERLIN Baptiste 06:49:01 SEM [75] M 248 SEM 0
518 CERUTTI Frederic 06:49:09 V2M [69] M 52 V2M 0
519 GAUTIER Laurent Pierre 06:49:14 SEM [92] M 249 SEM 0
520 GUERIN Laurent 06:49:41 V1M [06] M 176 V1M 0
521 GONON Frank 06:49:54 V2M [42] M 53 V2M 0
522 LIEVEN DIDIER 06:49:58 V2M [59] M 54 V2M 0
523 BROCHARD Didier 06:51:00 V2M [69] M 55 V2M 0
524 HERVAUD Christophe 06:51:55 V1M [10] M 177 V1M 0
525 LEVASSEUR Guillaume 06:51:57 V1M [10] M 178 V1M 0
526 EICKMAYER Thomas 06:52:31 V1M [30] M 179 V1M 0
527 MARTINEZ RAMIREZ Bernardo 06:52:39 V1M [77] M 180 V1M 0
528 CARVALHO Stephane 06:53:02 SEM [13] M 250 SEM 0
529 DUCHENE Thomas 06:53:02 SEM [13] M 251 SEM 0
530 DESCROIX Benjamin 06:53:07 SEM [92] M 252 SEM 0
531 JULIEN Renault 06:53:29 SEM [75] M 253 SEM 0
532 CHAPELLON Sebastien 06:53:31 SEM [69] M 254 SEM 0
533 GOUELLE Thierry 06:54:04 V2M [10] M 56 V2M 0
534 DUFRENOY Kevin 06:54:25 SEM [60] M 255 SEM 0
535 RICARD Francois 06:55:22 SEM [01] M 256 SEM 0
536 MINVIELLE Bernard 06:55:43 V2M ATSCAF M 57 V2M 0
537 MENOT Sylvie 06:55:44 V1F [13] F 36 eme F / 12 V1F 0
538 GIL Patrick 06:55:45 V1M [30] M 181 V1M 0
539 TEISSON Jerome 06:55:48 V2M [92] M 58 V2M 0
540 HADDAD Fabien 06:55:49 V1M [94] M 182 V1M 0
541 JOUVEL Nicolas 06:55:55 SEM [26] M 257 SEM 0
542 CARPENTIER Fabien 06:56:39 V1M [26] M 183 V1M 0
543 LEJEUNE Laurent 06:57:19 V1M [01] M 184 V1M 0
544 PILARD Thierry 06:59:45 V1M [77] M 185 V1M 0
545 HUGUET Adrien 06:59:56 V1M [77] M 186 V1M 0
546 VICTOR Pascal 06:59:57 V1M [77] M 187 V1M 0
547 FORGET Thierry 06:59:57 V1M [60] M 188 V1M 0
548 LIMBOUR Yann 07:00:04 V1M [13] M 189 V1M 0
549 SANFILIPPO Magali 07:00:04 SEF [13] F 37 eme F / 21 SEF 0
550 SELLEM Thierry 07:00:25 V1M [94] M 190 V1M 0
551 SCHAFER Pierre 07:00:33 V3M [13] M 5 V3M 0
552 DUFRENOY Didier 07:00:34 V2M [95] M 59 V2M 0
553 RODRIGUEZ Patrick 07:01:06 V2M [12] M 60 V2M 0
554 PELOSSE Alain 07:01:22 V1M [78] M 191 V1M 0
555 RUFF Bruno 07:04:49 SEM [93] M 258 SEM 0
556 DRUET Fabrice 07:07:09 V1M [95] M 192 V1M 0
557 EYMENIER Laurent 07:09:34 SEM [34] M 259 SEM 0
558 BARTHOLIN Jean 07:09:38 SEM [38] M 260 SEM 0
559 LANTENOIS Christophe 07:12:04 V1M [84] M 193 V1M 0
560 GARRIGUES Jean Francois 07:12:36 V1M [34] M 194 V1M 0
561 CAFFORT Sandra 07:12:37 SEF [34] F 38 eme F / 22 SEF 0
562 CAURE Pierre 07:12:49 SEM [94] M 261 SEM 0
563 LALANNE Jean Louis 07:13:03 V4M [75] M 1 V4M 0
564 GAILLIEGUE Franz 07:14:10 V1M [78] M 195 V1M 0
565 HURTREL Nicolas 07:17:03 V1M [91] M 196 V1M 0
566 GUY Christophe 07:17:04 V2M [91] M 61 V2M 0
567 CARNICER Brice 07:17:53 SEM [84] M 262 SEM 0
568 LEBRUN Thomas 07:20:29 SEM [59] M 263 SEM 0
569 FERRI Patrick 07:21:18 V3M [91] M 6 V3M 0
570 GOUHIER Ludovic 07:21:18 V1M [94] M 197 V1M 0
571 ZAMMIT Jean Luc 07:21:20 V2M [13] M 62 V2M 0
572 DUCHENE Jerome 07:21:22 V1M [49] M 198 V1M 0
573 TAMBURRINI Gerard 07:21:44 V1M [84] M 199 V1M 0
574 ACHETTE Frederic 07:21:45 V1M [84] M 200 V1M 0
575 GLASIAN Alain 07:22:05 V2M [43] M 63 V2M 0
576 GAUTIER Franck 07:22:06 V1M [43] M 201 V1M 0
577 BELLUCCI Thierry 07:23:06 V1M [13] M 202 V1M 0
578 JESTIN GARCIA Magali 07:23:07 V1F [91] F 39 eme F / 13 V1F 0
579 LENGUIN Christophe 07:23:07 V1M [91] M 203 V1M 0
580 TOULOUZE Pierre 07:23:10 V1M [31] M 204 V1M 0
581 ROUAIX Arnaud 07:26:00 SEM [84] M 264 SEM 0
582 GORGE Laurent 07:27:37 V1M [35] M 205 V1M 0
583 CLUZEAU Julien 07:28:03 SEM [84] M 265 SEM 0
584 DE CASTELLANE Lionel 07:28:07 SEM [92] M 266 SEM 0
585 MIRVILLE Valerie 07:28:51 V1F [60] F 40 eme F / 14 V1F 0
586 CERVEAUX Odile 07:28:51 SEF [95] F 41 eme F / 23 SEF 0
587 HARDY Sebastien 07:29:54 SEM [94] M 267 SEM 0
588 MEEUSEN Hugo 07:30:38 V1M [45] M 206 V1M 0
589 GIBARD Pierre 07:32:45 V2M [84] M 64 V2M 0
590 JOUBERT Raphael 07:33:18 V1M [33] M 207 V1M 0
591 AGENAIS Yves 07:39:01 V2M [78] M 65 V2M 0
592 BLOYET Mickael 07:41:43 V1M [34] M 208 V1M 0
593 FLOUR Valerie 07:51:23 V1F [33] F 42 eme F / 15 V1F 0
594 SOMNY Clarisse 08:01:52 SEF [13] F 43 eme F / 24 SEF 0
595 FONTAINE Nicolas 08:01:54 SEM [13] M 268 SEM 0
596 RAUX Sebastien 08:04:51 SEM [77] M 269 SEM 0
597 BRUTIER Teddy 08:04:54 SEM [94] M 270 SEM 0
598 GLORIAN Thierry 08:08:14 V2M [77] M 66 V2M 0
599 BAUDRIER STEFANI Simon 08:18:27 SEM [06] M 271 SEM 0


ReferencementCe site est listé dans la catégorie Sport : Sports extrêmes Dictionnaire
| Accueil | La Réunion  Vue du ciel | Météo | Cyclones | Volcan | Cirques de Mafate , Cilaos , Salazie | Photos Randonnées | Randonnées Réunion: Randos Espiègle , Courses montagne | Diagonale des Fous |  Marathon des Sables | Voyages Les stats du site | Fonds écran | Plan du site | Blog de runraid | Galerie photos Sport Réunion |